Location: Unspecified
(45.3712°N, 0.6436°E)
Time: 02:32:51
(UTC+01:00)

Tiangong 2 - Visible Passes

Search period start: 21 November 2018 00:00
Search period end: 01 December 2018 00:00
Orbit: 382 x 393 km, 42.8° (Epoch: 20 November)

Date Brightness Start Highest point End Pass type
(mag) Time Alt. Az. Time Alt. Az. Time Alt. Az.
23 Nov 4.2 07:24:23 10° S 07:25:56 13° SSE 07:27:29 10° ESE visible
25 Nov 3.7 07:02:50 10° SSW 07:05:15 20° SSE 07:07:41 10° ESE visible
26 Nov 4.0 06:05:13 10° S 06:06:51 13° SSE 06:08:29 10° ESE visible
27 Nov 2.9 06:42:12 12° SW 06:44:37 29° SSE 06:47:28 10° E visible
28 Nov 3.6 05:46:42 20° SE 05:46:42 20° SE 05:48:37 10° ESE visible
28 Nov 1.9 07:19:28 10° WSW 07:22:34 48° S 07:25:42 10° E visible
29 Nov 2.1 06:23:21 34° SSW 06:24:01 39° SSE 06:27:03 10° E visible
30 Nov 4.3 05:27:37 15° ESE 05:27:37 15° ESE 05:28:20 10° E visible
30 Nov 1.6 06:59:54 18° WSW 07:02:01 53° S 07:05:10 10° E visible
